STARLINK-1807, 46706

Orbit data source: Space-Track

STARLINK-1807, 46706 is a payload satellite owned by SpaceX/Seattle (US) in LEO that was launched on Sun, 18 Oct 2020 UTC via an FALCON 9 launch vehicle from the Air Force Eastern Test Range (AFETR). Payload-class satellites include a variety of spacecraft equipped with specific instruments for various scientific and technological missions. These include communications satellites like Starlink; space stations such as the ISS; scientific satellites like the Hubble; Earth observation satellites from companies like Planet Labs, Umbra, and HawkEye 360; GPS; miniature CubeSats for education and research; and military/defense satellites.

Loading next visibility...
Identifier
46706, 2020-073AN
Orbit
LEO
Country
Flag of USUS
Related business
Manufacturer
SpaceX/Seattle
Mission
Partially operational Commercial Communications
Bus & Motor
STARLINK, Unknown motor
Mass
260 kg wet, ~248 kg dry
Launch date (UTC)
2020-10-18 (5 years ago)
Launch vehicle
FALCON 9
Launch site
Air Force Eastern Test Range (AFETR)
Object type
Payload
Rocket body
Debris
Shape & HBR
Box + 1 Pan, 10.1 m
Radar Cross Section
13.562 m², Large (>1 m²)

Expand to show TLE details & history
Last TLE update: 19 hours ago

TLE from 19 hours ago
0 STARLINK-1807
1 46706U 20073AN  25303.18233867  .00053054  00000-0  29161-2 0  9994
2 46706  53.0471 105.1866 0007150 138.3182 221.8356 15.13581872277498
Epoch: 2025-10-30T04:22Z
TLE epoch observation values (Epoch: 2025-10-30T04:22:34.061Z)
Latitude
-0°
Longitude
0.79988°
Altitude
529.847 km
Speed
7.597 km/s
True Right ascension
07h 00m 44s
True Declination
0° 00' 00"
Sunlit
Object was in daylight at epoch
Visualization orbit readout
Latitude
Unknown
Longitude
Unknown
Altitude
Unknown
Speed
Unknown
Apparent Right ascension
Unknown
Apparent Declination
Unknown
Sunlit
N/A
Visualization observer readout
Local Sidereal Time
18:32:29
Azimuth
Unknown
Elevation
Unknown
Doppler factor
Unknown
Orbital elements
Apogee altitude
530.496 km
Perigee altitude
520.624 km
Semi-major axis
6,903.697 km
Eccentricity
0.00072
Inclination
53.0471°
RAAN
105.1866°
Arg. of periapsis
138.3182°
True anomaly
221.78099°
Mean anomaly
221.8356°
Eccentric anomaly
221.80829°
Mean motion
3.78373 °/min
Orbital period
95.14 mins
BSTAR
0.0029161
Loading maneuver chart data...
Computing Atmospheric mass density...

Documentation

Showing up to 5 results
|